Resultados

1500 Electronico
Fecha Serie Viento Presión Humedad Temperatura
05-03-2016 Final_A
Puesto Andanivel Nombre Dia Mes Año Pais Marca
01 Gregorio Eduardo 4 1 1989 ATE - 3.57.81 -
02 Caso Santiago 29 10 1984 FAM - 3.58.94 -
03 Zamora Cristhian 15 1 1991 LGA - 3.59.31 -
04 Tejera Jhonatan 13 1 1988 PE - 4.01.06
05 Moreira Mariano 6 1 1998 FAM - 4.03.78 -
06 Gonzalez Waldemar 30 11 1998 FLRES - 4.05.46
07 Gonzalez Nicolas 28 5 1990 VO2 - 4.06.18 -
08 Costa Marco Rogerio 27 3 1985 BRA - 4.06.53
09 Coito Leonardo 10 9 1994 ART - 4.09.13 -
10 Segovia Cristian 20 12 1995 ISAAC - 4.11.69 -
11 Eguren Cristian 20 2 1997 FOA - 4.12.95 -
12 Maiorana Andres 4 8 1986 LIB - 4.13.68 -
13 Cacerez Oscar 2 2 1994 FRIDA - 4.14.90 -
14 Antunez Alexander 11 10 1989 FAM - 4.17.73 -
15 Pirez Nicolas 6 12 1996 ISAAC - 4.18.84
16 Sasias Jonathan 29 3 1989 FAM - 4.18.88 -
17 Rodriguez Bruno 20 10 1999 MyC - 4.19.04 -
18 Rodriguez Joaquin 4 11 1993 NAC - 4.19.48 -
19 Rodriguez Matias 1 1 1900 - - 4.19.72 -
20 Da Luz Gonzalo 2 8 1995 FEDAC - 4.23.11 -
21 Flores Guillermo 27 8 1985 ATE - 4.23.41 -
22 Falero Nicolas 22 6 1990 CME - 4.24.94 -
23 Piedrabuena Pablo 23 4 1990 PE - 4.27.63 -
24 Cabana Alejandro 9 3 1993 NAC - 4.29.03 -
25 Perdomo Alexis 05 01 1992 - - 4.30.28
26 Navas Nicolas 10 5 1994 ATE - 4.31.99 -
27 Marticorena Federico 9 3 1999 FAM - 4.32.14
28 Cabrera Richard 26 1 1994 NAC - 4.34.89 -
29 Patron Rodrigo 8 7 1996 LIB - 4.36.44 -
30 Silveira Manuel 3 12 1999 MyC - 4.37.78 -
30 Silveira Manuel 1 2 2001 SEC - 4.37.78
31 Bonner Juan 15 11 1982 FAM - 4.40.02 -
32 Ibarra Alvaro 9 5 1964 NAC - 4.45.65 -
33 Chavarria Bogarin Luis 19 2 1999 SJOSE - 4.46.72 -
34 Llorente Ricardo 22 1 1995 NAC - 4.51.54 -
35 Roqueta Lucas 27 12 1995 NAC - 4.54.24 -
36 Mateos Cristian 23 11 2001 SACUD - 4.56.51 -
37 Diaz Lautaro 29 1 2003 FAM - 4.58.63 -
38 Chaves Daniel Winston 25 07 1967 - - 5.00.60 -
39 Maldonado Facundo 26 10 1998 SOR - 5.01.66 -
40 Gronrroz Ciro 5 10 2000 DSP - 5.04.41 -
41 Marta Nicolas 4 3 1999 FOA - 5.04.91 -
42 De Los Santos Joaquin 24 9 1999 DSP - 5.10.75 -
43 Reinoso Sebastián 13 6 1999 AGUIL - 5.11.53 -
44 Garcia Hector 19 3 1977 NAC - 5.15.39 -
45 Campopiano Lucas 25 8 1999 AGUIL - 5.17.33 -
46 Tabeira Javier 12 5 1983 AGUIL - 5.20.63 -
47 Olivera Guillermo 16 7 1999 FAM - 5.21.03 -
48 Llovet Matias 22 2 1998 FAM - 5.29.05 -
49 Vila Juan 31 1 1998 DSP - 5.37.16 -
50 Marcelo Bariatti 19 7 1973 HUR - 6.40.11 -